Time,TemperatureF,DewpointF,PressureIn,WindDirection,WindDirectionDegrees,WindSpeedMPH,WindSpeedGustMPH,Humidity,HourlyPrecipIn,Conditions,Clouds,dailyrainin,SoftwareType,DateUTC
2013-05-26 00:00:00,67.6,58.2,30.19,NNE,18,0.0,0.0,72,0.00,,,0.00,Wunderground v.1.15,2013-05-26 04:00:00,
2013-05-26 00:05:00,67.5,58.2,30.20,NNE,18,0.0,0.0,72,0.00,,,0.00,Wunderground v.1.15,2013-05-26 04:05:00,
2013-05-26 00:10:00,67.3,58.3,30.20,NNE,19,0.0,1.0,73,0.00,,,0.00,Wunderground v.1.15,2013-05-26 04:10:00,
2013-05-26 00:15:00,67.1,58.2,30.20,NNE,19,0.0,1.0,73,0.00,,,0.00,Wunderground v.1.15,2013-05-26 04:15:00,
2013-05-26 00:20:00,66.9,58.0,30.20,NNE,19,0.0,0.0,73,0.00,,,0.00,Wunderground v.1.15,2013-05-26 04:20:00,
2013-05-26 00:25:00,66.7,58.1,30.20,NNE,19,0.0,0.0,74,0.00,,,0.00,Wunderground v.1.15,2013-05-26 04:25:00,
2013-05-26 00:30:00,66.4,57.9,30.20,NNE,19,0.0,0.0,74,0.00,,,0.00,Wunderground v.1.15,2013-05-26 04:30:00,
2013-05-26 00:35:00,66.1,57.9,30.20,NNE,19,0.0,0.0,75,0.00,,,0.00,Wunderground v.1.15,2013-05-26 04:35:00,
2013-05-26 00:45:00,65.6,58.2,30.19,NNE,19,0.0,0.0,77,0.00,,,0.00,Wunderground v.1.15,2013-05-26 04:45:00,
2013-05-26 00:50:00,65.3,57.9,30.19,NNE,19,0.0,0.0,77,0.00,,,0.00,Wunderground v.1.15,2013-05-26 04:50:00,
2013-05-26 00:55:00,65.0,58.3,30.19,NNE,19,0.0,0.0,79,0.00,,,0.00,Wunderground v.1.15,2013-05-26 04:55:00,
2013-05-26 01:00:00,64.7,57.7,30.19,NNE,19,0.0,0.0,78,0.00,,,0.00,Wunderground v.1.15,2013-05-26 05:00:00,
2013-05-26 01:05:00,64.5,57.8,30.19,NNE,19,0.0,0.0,79,0.00,,,0.00,Wunderground v.1.15,2013-05-26 05:05:00,
2013-05-26 01:10:00,64.4,58.1,30.19,NNE,19,0.0,0.0,80,0.00,,,0.00,Wunderground v.1.15,2013-05-26 05:10:00,
2013-05-26 01:15:00,64.1,57.8,30.19,NNE,19,0.0,0.0,80,0.00,,,0.00,Wunderground v.1.15,2013-05-26 05:15:00,
2013-05-26 01:20:00,63.9,58.0,30.18,NNE,19,0.0,0.0,81,0.00,,,0.00,Wunderground v.1.15,2013-05-26 05:20:00,
2013-05-26 01:25:00,63.8,58.2,30.18,NNE,19,0.0,0.0,82,0.00,,,0.00,Wunderground v.1.15,2013-05-26 05:25:00,
2013-05-26 01:30:00,63.6,58.0,30.18,NNE,19,0.0,0.0,82,0.00,,,0.00,Wunderground v.1.15,2013-05-26 05:30:00,
2013-05-26 01:35:00,63.4,57.8,30.18,NNE,19,0.0,0.0,82,0.00,,,0.00,Wunderground v.1.15,2013-05-26 05:35:00,
2013-05-26 01:40:00,63.2,57.9,30.18,NNE,19,0.0,0.0,83,0.00,,,0.00,Wunderground v.1.15,2013-05-26 05:40:00,
2013-05-26 01:50:00,63.0,57.8,30.18,NNE,20,0.0,0.0,83,0.00,,,0.00,Wunderground v.1.15,2013-05-26 05:50:00,
2013-05-26 01:55:00,62.9,57.7,30.17,NNE,20,0.0,0.0,83,0.00,,,0.00,Wunderground v.1.15,2013-05-26 05:55:00,
2013-05-26 02:00:00,63.0,58.1,30.17,NNE,20,0.0,0.0,84,0.00,,,0.00,Wunderground v.1.15,2013-05-26 06:00:00,
2013-05-26 02:05:00,63.1,58.2,30.18,NNE,20,0.0,0.0,84,0.00,,,0.00,Wunderground v.1.15,2013-05-26 06:05:00,
2013-05-26 02:10:00,63.0,58.1,30.17,NNE,20,0.0,0.0,84,0.00,,,0.00,Wunderground v.1.15,2013-05-26 06:10:00,
2013-05-26 02:20:00,62.6,57.7,30.17,NNE,20,0.0,0.0,84,0.00,,,0.00,Wunderground v.1.15,2013-05-26 06:20:00,
2013-05-26 02:25:00,62.4,57.5,30.17,NNE,20,0.0,0.0,84,0.00,,,0.00,Wunderground v.1.15,2013-05-26 06:25:00,
2013-05-26 02:30:00,62.2,57.6,30.17,NNE,20,0.0,0.0,85,0.00,,,0.00,Wunderground v.1.15,2013-05-26 06:30:00,
2013-05-26 02:40:00,61.8,57.6,30.17,NNE,20,0.0,0.0,86,0.00,,,0.00,Wunderground v.1.15,2013-05-26 06:40:00,
2013-05-26 02:45:00,61.8,57.9,30.17,NNE,20,0.0,0.0,87,0.00,,,0.00,Wunderground v.1.15,2013-05-26 06:45:00,
2013-05-26 02:50:00,61.7,57.8,30.17,NNE,20,0.0,0.0,87,0.00,,,0.00,Wunderground v.1.15,2013-05-26 06:50:00,
2013-05-26 02:55:00,61.5,57.6,30.17,NNE,20,0.0,0.0,87,0.00,,,0.00,Wunderground v.1.15,2013-05-26 06:55:00,
2013-05-26 03:00:00,61.3,57.4,30.17,NNE,20,0.0,0.0,87,0.00,,,0.00,Wunderground v.1.15,2013-05-26 07:00:00,
2013-05-26 03:10:00,60.9,57.3,30.16,NNE,20,0.0,0.0,88,0.00,,,0.00,Wunderground v.1.15,2013-05-26 07:10:00,
2013-05-26 03:15:00,60.7,57.1,30.16,NNE,20,0.0,0.0,88,0.00,,,0.00,Wunderground v.1.15,2013-05-26 07:15:00,
2013-05-26 03:25:00,60.4,57.1,30.16,NNE,20,0.0,0.0,89,0.00,,,0.00,Wunderground v.1.15,2013-05-26 07:25:00,
2013-05-26 03:30:00,60.2,56.9,30.16,NNE,20,0.0,0.0,89,0.00,,,0.00,Wunderground v.1.15,2013-05-26 07:30:00,
2013-05-26 03:35:00,60.2,56.9,30.16,NNE,20,0.0,0.0,89,0.00,,,0.00,Wunderground v.1.15,2013-05-26 07:35:00,
2013-05-26 03:40:00,60.0,57.1,30.16,NNE,20,0.0,0.0,90,0.00,,,0.00,Wunderground v.1.15,2013-05-26 07:40:00,
2013-05-26 03:50:00,59.7,56.8,30.16,NNE,20,0.0,0.0,90,0.00,,,0.00,Wunderground v.1.15,2013-05-26 07:50:00,
2013-05-26 03:55:00,59.6,56.4,30.16,NNE,20,0.0,0.0,89,0.00,,,0.00,Wunderground v.1.15,2013-05-26 07:55:00,
2013-05-26 04:00:00,59.5,56.6,30.16,NNE,20,0.0,0.0,90,0.00,,,0.00,Wunderground v.1.15,2013-05-26 08:00:00,
2013-05-26 04:05:00,59.4,56.8,30.16,NNE,20,0.0,0.0,91,0.00,,,0.00,Wunderground v.1.15,2013-05-26 08:05:00,
2013-05-26 04:15:00,59.2,56.6,30.16,NNE,20,0.0,0.0,91,0.00,,,0.00,Wunderground v.1.15,2013-05-26 08:15:00,
2013-05-26 04:20:00,59.2,56.9,30.15,NNE,20,0.0,0.0,92,0.00,,,0.00,Wunderground v.1.15,2013-05-26 08:20:00,
2013-05-26 04:25:00,59.2,56.9,30.16,NNE,20,0.0,0.0,92,0.00,,,0.00,Wunderground v.1.15,2013-05-26 08:25:00,
2013-05-26 04:30:00,59.2,56.9,30.15,NNE,20,0.0,0.0,92,0.00,,,0.00,Wunderground v.1.15,2013-05-26 08:30:00,
2013-05-26 04:35:00,59.2,56.9,30.15,NNE,20,0.0,0.0,92,0.00,,,0.00,Wunderground v.1.15,2013-05-26 08:35:00,
2013-05-26 04:40:00,59.2,56.9,30.15,NNE,20,0.0,0.0,92,0.00,,,0.00,Wunderground v.1.15,2013-05-26 08:40:00,
2013-05-26 04:45:00,59.2,57.2,30.15,NNE,20,0.0,0.0,93,0.00,,,0.00,Wunderground v.1.15,2013-05-26 08:45:00,
2013-05-26 04:55:00,59.1,57.1,30.15,NNE,20,0.0,0.0,93,0.00,,,0.00,Wunderground v.1.15,2013-05-26 08:55:00,
2013-05-26 05:00:00,59.5,57.5,30.15,East,93,0.0,0.0,93,0.00,,,0.00,Wunderground v.1.15,2013-05-26 09:00:00,
2013-05-26 05:05:00,59.9,57.9,30.15,East,93,0.0,0.0,93,0.00,,,0.00,Wunderground v.1.15,2013-05-26 09:05:00,
2013-05-26 05:10:00,60.3,58.0,30.16,East,94,0.0,0.0,92,0.00,,,0.00,Wunderground v.1.15,2013-05-26 09:10:00,
2013-05-26 05:15:00,60.8,58.5,30.16,SE,136,0.0,0.0,92,0.00,,,0.00,Wunderground v.1.15,2013-05-26 09:15:00,
2013-05-26 05:25:00,61.5,58.5,30.16,SE,136,0.0,0.0,90,0.00,,,0.00,Wunderground v.1.15,2013-05-26 09:25:00,
2013-05-26 05:30:00,61.9,58.9,30.16,SE,136,0.0,0.0,90,0.00,,,0.00,Wunderground v.1.15,2013-05-26 09:30:00,
2013-05-26 05:35:00,62.1,58.8,30.16,SE,136,0.0,0.0,89,0.00,,,0.00,Wunderground v.1.15,2013-05-26 09:35:00,
2013-05-26 05:40:00,62.3,59.0,30.16,SE,136,0.0,0.0,89,0.00,,,0.00,Wunderground v.1.15,2013-05-26 09:40:00,
2013-05-26 05:45:00,62.5,59.2,30.16,SE,136,0.0,0.0,89,0.00,,,0.00,Wunderground v.1.15,2013-05-26 09:45:00,
2013-05-26 05:55:00,62.3,59.0,30.17,SE,136,0.0,0.0,89,0.00,,,0.00,Wunderground v.1.15,2013-05-26 09:55:00,
2013-05-26 06:00:00,62.0,58.4,30.17,SE,136,0.0,0.0,88,0.00,,,0.00,Wunderground v.1.15,2013-05-26 10:00:00,
2013-05-26 06:05:00,61.8,58.5,30.17,SE,136,0.0,0.0,89,0.00,,,0.00,Wunderground v.1.15,2013-05-26 10:05:00,
2013-05-26 06:15:00,61.5,57.9,30.18,SE,136,0.0,0.0,88,0.00,,,0.00,Wunderground v.1.15,2013-05-26 10:15:00,
2013-05-26 06:20:00,61.4,58.1,30.18,SE,136,0.0,0.0,89,0.00,,,0.00,Wunderground v.1.15,2013-05-26 10:20:00,
2013-05-26 06:25:00,61.4,58.1,30.18,SE,136,0.0,0.0,89,0.00,,,0.00,Wunderground v.1.15,2013-05-26 10:25:00,
2013-05-26 06:30:00,61.3,58.0,30.18,SE,136,0.0,0.0,89,0.00,,,0.00,Wunderground v.1.15,2013-05-26 10:30:00,
2013-05-26 06:40:00,61.0,58.0,30.18,SE,136,0.0,0.0,90,0.00,,,0.00,Wunderground v.1.15,2013-05-26 10:40:00,
2013-05-26 06:45:00,60.9,57.9,30.18,SE,136,0.0,0.0,90,0.00,,,0.00,Wunderground v.1.15,2013-05-26 10:45:00,
2013-05-26 06:50:00,60.7,58.1,30.19,SE,136,0.0,0.0,91,0.00,,,0.00,Wunderground v.1.15,2013-05-26 10:50:00,
2013-05-26 06:55:00,60.5,57.9,30.19,SE,136,0.0,0.0,91,0.00,,,0.00,Wunderground v.1.15,2013-05-26 10:55:00,
2013-05-26 07:00:00,60.3,57.7,30.19,SE,136,0.0,0.0,91,0.00,,,0.00,Wunderground v.1.15,2013-05-26 11:00:00,
2013-05-26 07:05:00,60.2,57.9,30.19,SE,136,0.0,0.0,92,0.00,,,0.00,Wunderground v.1.15,2013-05-26 11:05:00,
2013-05-26 07:10:00,60.1,57.8,30.19,SE,136,0.0,0.0,92,0.00,,,0.00,Wunderground v.1.15,2013-05-26 11:10:00,
2013-05-26 07:20:00,60.2,57.9,30.20,SE,136,0.0,0.0,92,0.00,,,0.00,Wunderground v.1.15,2013-05-26 11:20:00,
2013-05-26 07:25:00,60.3,58.0,30.19,SE,136,0.0,0.0,92,0.00,,,0.00,Wunderground v.1.15,2013-05-26 11:25:00,
2013-05-26 07:30:00,60.4,58.1,30.20,SE,136,0.0,0.0,92,0.00,,,0.00,Wunderground v.1.15,2013-05-26 11:30:00,
2013-05-26 07:40:00,61.6,59.3,30.20,SE,136,0.0,0.0,92,0.00,,,0.00,Wunderground v.1.15,2013-05-26 11:40:00,
2013-05-26 07:45:00,62.7,60.3,30.20,SE,136,0.0,0.0,92,0.00,,,0.00,Wunderground v.1.15,2013-05-26 11:45:00,
2013-05-26 07:50:00,64.0,61.0,30.20,SE,136,0.0,0.0,90,0.00,,,0.00,Wunderground v.1.15,2013-05-26 11:50:00,
2013-05-26 07:55:00,65.4,62.1,30.20,SE,136,0.0,0.0,89,0.00,,,0.00,Wunderground v.1.15,2013-05-26 11:55:00,
2013-05-26 08:00:00,66.8,62.8,30.20,SE,136,0.0,0.0,87,0.00,,,0.00,Wunderground v.1.15,2013-05-26 12:00:00,
2013-05-26 08:10:00,69.4,64.0,30.20,SE,136,0.0,0.0,83,0.00,,,0.00,Wunderground v.1.15,2013-05-26 12:10:00,
2013-05-26 08:15:00,70.6,64.5,30.21,SE,136,0.0,0.0,81,0.00,,,0.00,Wunderground v.1.15,2013-05-26 12:15:00,
2013-05-26 08:20:00,71.5,64.3,30.21,SE,136,0.0,0.0,78,0.00,,,0.00,Wunderground v.1.15,2013-05-26 12:20:00,
2013-05-26 08:30:00,73.2,64.0,30.21,SE,137,0.0,1.0,73,0.00,,,0.00,Wunderground v.1.15,2013-05-26 12:30:00,
2013-05-26 08:35:00,73.5,63.5,30.21,SSE,148,0.0,2.0,71,0.00,,,0.00,Wunderground v.1.15,2013-05-26 12:35:00,
2013-05-26 08:45:00,73.8,61.7,30.21,ESE,123,1.0,3.0,66,0.00,,,0.00,Wunderground v.1.15,2013-05-26 12:45:00,
2013-05-26 08:55:00,74.1,62.0,30.21,NE,49,1.0,2.0,66,0.00,,,0.00,Wunderground v.1.15,2013-05-26 12:55:00,
2013-05-26 09:00:00,74.5,62.0,30.21,ENE,66,1.0,1.0,65,0.00,,,0.00,Wunderground v.1.15,2013-05-26 13:00:00,
2013-05-26 09:05:00,75.0,61.5,30.21,SE,135,1.0,2.0,63,0.00,,,0.00,Wunderground v.1.15,2013-05-26 13:05:00,
2013-05-26 09:15:00,75.1,60.7,30.22,East,85,2.0,3.0,61,0.00,,,0.00,Wunderground v.1.15,2013-05-26 13:15:00,
2013-05-26 09:20:00,75.0,60.2,30.22,SE,128,2.0,2.0,60,0.00,,,0.00,Wunderground v.1.15,2013-05-26 13:20:00,
2013-05-26 09:30:00,75.5,60.6,30.22,SSE,149,1.0,1.0,60,0.00,,,0.00,Wunderground v.1.15,2013-05-26 13:30:00,
2013-05-26 09:35:00,76.0,59.7,30.22,SE,136,1.0,1.0,57,0.00,,,0.00,Wunderground v.1.15,2013-05-26 13:35:00,
2013-05-26 09:45:00,76.4,59.0,30.22,SSE,150,2.0,2.0,55,0.00,,,0.00,Wunderground v.1.15,2013-05-26 13:45:00,
2013-05-26 09:55:00,76.9,59.5,30.22,SE,135,1.0,6.0,55,0.00,,,0.00,Wunderground v.1.15,2013-05-26 13:55:00,
2013-05-26 10:00:00,77.3,59.9,30.22,SE,139,1.0,1.0,55,0.00,,,0.00,Wunderground v.1.15,2013-05-26 14:00:00,
2013-05-26 10:10:00,77.7,59.2,30.22,East,86,1.0,1.0,53,0.00,,,0.00,Wunderground v.1.15,2013-05-26 14:10:00,
2013-05-26 10:15:00,78.2,59.1,30.22,NNW,337,1.0,3.0,52,0.00,,,0.00,Wunderground v.1.15,2013-05-26 14:15:00,
2013-05-26 10:25:00,78.3,59.2,30.22,North,5,1.0,2.0,52,0.00,,,0.00,Wunderground v.1.15,2013-05-26 14:25:00,
2013-05-26 10:30:00,78.3,59.2,30.22,NE,53,1.0,1.0,52,0.00,,,0.00,Wunderground v.1.15,2013-05-26 14:30:00,
2013-05-26 10:40:00,78.9,59.2,30.22,SE,146,1.0,2.0,51,0.00,,,0.00,Wunderground v.1.15,2013-05-26 14:40:00,
2013-05-26 10:50:00,79.3,59.0,30.22,East,88,2.0,3.0,50,0.00,,,0.00,Wunderground v.1.15,2013-05-26 14:50:00,
2013-05-26 10:55:00,79.4,59.1,30.22,SSW,192,2.0,3.0,50,0.00,,,0.00,Wunderground v.1.15,2013-05-26 14:55:00,
2013-05-26 11:05:00,80.0,59.1,30.21,SSE,151,1.0,1.0,49,0.00,,,0.00,Wunderground v.1.15,2013-05-26 15:05:00,
2013-05-26 11:10:00,80.1,59.2,30.21,NW,323,1.0,1.0,49,0.00,,,0.00,Wunderground v.1.15,2013-05-26 15:10:00,
2013-05-26 11:15:00,79.7,59.4,30.21,NNE,30,2.0,2.0,50,0.00,,,0.00,Wunderground v.1.15,2013-05-26 15:15:00,
2013-05-26 11:25:00,80.4,58.9,30.21,SSE,159,1.0,2.0,48,0.00,,,0.00,Wunderground v.1.15,2013-05-26 15:25:00,
2013-05-26 11:35:00,81.1,58.4,30.21,South,170,3.0,3.0,46,0.00,,,0.00,Wunderground v.1.15,2013-05-26 15:35:00,
2013-05-26 11:40:00,81.3,58.5,30.21,NE,44,2.0,2.0,46,0.00,,,0.00,Wunderground v.1.15,2013-05-26 15:40:00,
2013-05-26 11:50:00,80.5,58.4,30.21,ENE,65,2.0,2.0,47,0.00,,,0.00,Wunderground v.1.15,2013-05-26 15:50:00,
2013-05-26 11:55:00,80.9,59.9,30.21,ENE,75,2.0,2.0,49,0.00,,,0.00,Wunderground v.1.15,2013-05-26 15:55:00,
2013-05-26 12:05:00,81.6,58.2,30.21,South,183,1.0,2.0,45,0.00,,,0.00,Wunderground v.1.15,2013-05-26 16:05:00,
2013-05-26 12:10:00,82.2,59.4,30.21,North,360,1.0,1.0,46,0.00,,,0.00,Wunderground v.1.15,2013-05-26 16:10:00,
2013-05-26 12:15:00,82.3,58.8,30.21,East,99,1.0,2.0,45,0.00,,,0.00,Wunderground v.1.15,2013-05-26 16:15:00,
2013-05-26 12:25:00,82.4,58.3,30.21,SE,130,1.0,2.0,44,0.00,,,0.00,Wunderground v.1.15,2013-05-26 16:25:00,
2013-05-26 12:30:00,82.4,59.5,30.21,SE,127,1.0,2.0,46,0.00,,,0.00,Wunderground v.1.15,2013-05-26 16:30:00,
2013-05-26 12:40:00,81.5,58.1,30.21,North,360,1.0,4.0,45,0.00,,,0.00,Wunderground v.1.15,2013-05-26 16:40:00,
2013-05-26 12:50:00,81.7,57.7,30.21,South,174,2.0,2.0,44,0.00,,,0.00,Wunderground v.1.15,2013-05-26 16:50:00,
2013-05-26 12:55:00,82.0,57.9,30.20,NNW,344,1.0,2.0,44,0.00,,,0.00,Wunderground v.1.15,2013-05-26 16:55:00,
2013-05-26 13:05:00,82.3,57.6,30.20,East,84,2.0,2.0,43,0.00,,,0.00,Wunderground v.1.15,2013-05-26 17:05:00,
2013-05-26 13:10:00,82.2,60.6,30.20,NNW,329,2.0,3.0,48,0.00,,,0.00,Wunderground v.1.15,2013-05-26 17:10:00,
2013-05-26 13:15:00,82.3,58.8,30.20,ENE,65,2.0,3.0,45,0.00,,,0.00,Wunderground v.1.15,2013-05-26 17:15:00,
2013-05-26 13:25:00,83.4,57.9,30.20,ENE,68,2.0,4.0,42,0.00,,,0.00,Wunderground v.1.15,2013-05-26 17:25:00,
2013-05-26 13:35:00,84.0,60.4,30.19,NNE,17,2.0,2.0,45,0.00,,,0.00,Wunderground v.1.15,2013-05-26 17:35:00,
2013-05-26 13:40:00,83.9,57.7,30.19,NNW,331,2.0,2.0,41,0.00,,,0.00,Wunderground v.1.15,2013-05-26 17:40:00,
2013-05-26 13:50:00,83.7,58.2,30.19,NNE,30,1.0,2.0,42,0.00,,,0.00,Wunderground v.1.15,2013-05-26 17:50:00,
2013-05-26 13:55:00,83.9,57.7,30.18,NNE,32,1.0,2.0,41,0.00,,,0.00,Wunderground v.1.15,2013-05-26 17:55:00,
2013-05-26 14:00:00,83.9,58.3,30.18,North,9,1.0,1.0,42,0.00,,,0.00,Wunderground v.1.15,2013-05-26 18:00:00,
2013-05-26 14:10:00,84.5,58.9,30.18,North,355,2.0,3.0,42,0.00,,,0.00,Wunderground v.1.15,2013-05-26 18:10:00,
2013-05-26 14:20:00,85.0,55.8,30.18,WNW,296,2.0,2.0,37,0.00,,,0.00,Wunderground v.1.15,2013-05-26 18:20:00,
2013-05-26 14:25:00,85.0,55.8,30.17,NNE,23,1.0,2.0,37,0.00,,,0.00,Wunderground v.1.15,2013-05-26 18:25:00,
2013-05-26 14:35:00,85.6,57.1,30.17,NNW,348,1.0,1.0,38,0.00,,,0.00,Wunderground v.1.15,2013-05-26 18:35:00,
2013-05-26 14:40:00,85.1,57.4,30.17,NNE,14,1.0,2.0,39,0.00,,,0.00,Wunderground v.1.15,2013-05-26 18:40:00,
2013-05-26 14:50:00,84.2,56.6,30.17,NE,46,1.0,1.0,39,0.00,,,0.00,Wunderground v.1.15,2013-05-26 18:50:00,
2013-05-26 14:55:00,84.3,58.0,30.17,NNE,22,1.0,1.0,41,0.00,,,0.00,Wunderground v.1.15,2013-05-26 18:55:00,
2013-05-26 15:05:00,84.9,58.6,30.17,East,96,1.0,1.0,41,0.00,,,0.00,Wunderground v.1.15,2013-05-26 19:05:00,
2013-05-26 15:10:00,85.3,58.2,30.17,NNE,31,1.0,1.0,40,0.00,,,0.00,Wunderground v.1.15,2013-05-26 19:10:00,
2013-05-26 15:20:00,85.7,57.9,30.17,SW,227,2.0,2.0,39,0.00,,,0.00,Wunderground v.1.15,2013-05-26 19:20:00,
2013-05-26 15:30:00,86.5,57.1,30.16,South,182,2.0,5.0,37,0.00,,,0.00,Wunderground v.1.15,2013-05-26 19:30:00,
2013-05-26 15:35:00,87.0,57.6,30.16,NNE,24,1.0,5.0,37,0.00,,,0.00,Wunderground v.1.15,2013-05-26 19:35:00,
2013-05-26 15:45:00,86.1,56.8,30.15,ENE,77,2.0,2.0,37,0.00,,,0.00,Wunderground v.1.15,2013-05-26 19:45:00,
2013-05-26 15:50:00,85.8,55.8,30.15,ENE,61,2.0,2.0,36,0.00,,,0.00,Wunderground v.1.15,2013-05-26 19:50:00,
2013-05-26 15:55:00,85.8,57.3,30.15,WNW,298,2.0,4.0,38,0.00,,,0.00,Wunderground v.1.15,2013-05-26 19:55:00,
2013-05-26 16:05:00,85.5,56.3,30.15,SSE,159,2.0,4.0,37,0.00,,,0.00,Wunderground v.1.15,2013-05-26 20:05:00,
2013-05-26 16:10:00,85.4,56.2,30.15,ESE,108,1.0,4.0,37,0.00,,,0.00,Wunderground v.1.15,2013-05-26 20:10:00,
2013-05-26 16:20:00,85.0,56.5,30.14,ENE,73,2.0,2.0,38,0.00,,,0.00,Wunderground v.1.15,2013-05-26 20:20:00,
2013-05-26 16:25:00,84.9,56.5,30.14,ENE,71,1.0,2.0,38,0.00,,,0.00,Wunderground v.1.15,2013-05-26 20:25:00,
2013-05-26 16:35:00,84.6,56.2,30.14,ESE,107,1.0,1.0,38,0.00,,,0.00,Wunderground v.1.15,2013-05-26 20:35:00,
2013-05-26 16:45:00,84.2,56.6,30.14,ENE,62,1.0,2.0,39,0.00,,,0.00,Wunderground v.1.15,2013-05-26 20:45:00,
2013-05-26 16:50:00,84.1,57.9,30.14,WNW,293,1.0,1.0,41,0.00,,,0.00,Wunderground v.1.15,2013-05-26 20:50:00,
2013-05-26 17:00:00,84.0,56.4,30.13,NE,42,1.0,1.0,39,0.00,,,0.00,Wunderground v.1.15,2013-05-26 21:00:00,
2013-05-26 17:05:00,84.0,57.8,30.13,NE,49,0.0,1.0,41,0.00,,,0.00,Wunderground v.1.15,2013-05-26 21:05:00,
2013-05-26 17:15:00,83.7,58.2,30.13,ENE,65,1.0,1.0,42,0.00,,,0.00,Wunderground v.1.15,2013-05-26 21:15:00,
2013-05-26 17:20:00,83.6,59.4,30.13,NNE,22,1.0,1.0,44,0.00,,,0.00,Wunderground v.1.15,2013-05-26 21:20:00,
2013-05-26 17:30:00,83.2,60.3,30.14,NNE,33,1.0,1.0,46,0.00,,,0.00,Wunderground v.1.15,2013-05-26 21:30:00,
2013-05-26 17:35:00,83.2,59.6,30.13,NW,307,1.0,2.0,45,0.00,,,0.00,Wunderground v.1.15,2013-05-26 21:35:00,
2013-05-26 17:45:00,83.0,58.8,30.13,East,82,1.0,2.0,44,0.00,,,0.00,Wunderground v.1.15,2013-05-26 21:45:00,
2013-05-26 17:50:00,82.8,59.3,30.13,NE,40,2.0,2.0,45,0.00,,,0.00,Wunderground v.1.15,2013-05-26 21:50:00,
2013-05-26 18:00:00,83.0,59.5,30.13,ESE,123,1.0,1.0,45,0.00,,,0.00,Wunderground v.1.15,2013-05-26 22:00:00,
2013-05-26 18:05:00,83.2,59.0,30.13,SE,127,2.0,2.0,44,0.00,,,0.00,Wunderground v.1.15,2013-05-26 22:05:00,
2013-05-26 18:15:00,83.2,59.6,30.13,ENE,59,2.0,2.0,45,0.00,,,0.00,Wunderground v.1.15,2013-05-26 22:15:00,
2013-05-26 18:25:00,83.0,58.8,30.13,East,91,1.0,2.0,44,0.00,,,0.00,Wunderground v.1.15,2013-05-26 22:25:00,
2013-05-26 18:35:00,82.5,57.7,30.13,NE,34,2.0,2.0,43,0.00,,,0.00,Wunderground v.1.15,2013-05-26 22:35:00,
2013-05-26 18:40:00,82.3,58.2,30.13,NNE,23,1.0,2.0,44,0.00,,,0.00,Wunderground v.1.15,2013-05-26 22:40:00,
2013-05-26 18:50:00,81.5,58.7,30.13,East,84,2.0,2.0,46,0.00,,,0.00,Wunderground v.1.15,2013-05-26 22:50:00,
2013-05-26 19:00:00,80.9,58.8,30.13,North,5,2.0,3.0,47,0.00,,,0.00,Wunderground v.1.15,2013-05-26 23:00:00,
2013-05-26 19:05:00,80.6,58.5,30.13,North,360,2.0,3.0,47,0.00,,,0.00,Wunderground v.1.15,2013-05-26 23:05:00,
2013-05-26 19:10:00,80.4,58.3,30.13,SSW,213,2.0,2.0,47,0.00,,,0.00,Wunderground v.1.15,2013-05-26 23:10:00,
2013-05-26 19:20:00,80.1,59.2,30.14,NNE,30,2.0,2.0,49,0.00,,,0.00,Wunderground v.1.15,2013-05-26 23:20:00,
2013-05-26 19:25:00,79.9,58.5,30.14,NW,323,2.0,2.0,48,0.00,,,0.00,Wunderground v.1.15,2013-05-26 23:25:00,
2013-05-26 19:35:00,79.4,58.6,30.14,ENE,74,1.0,1.0,49,0.00,,,0.00,Wunderground v.1.15,2013-05-26 23:35:00,
2013-05-26 19:40:00,79.1,58.3,30.14,ENE,71,1.0,1.0,49,0.00,,,0.00,Wunderground v.1.15,2013-05-26 23:40:00,
2013-05-26 19:50:00,78.5,58.9,30.14,NNE,22,2.0,3.0,51,0.00,,,0.00,Wunderground v.1.15,2013-05-26 23:50:00,
2013-05-26 19:55:00,78.2,58.0,30.15,ENE,76,1.0,3.0,50,0.00,,,0.00,Wunderground v.1.15,2013-05-26 23:55:00,
2013-05-26 20:05:00,77.6,57.5,30.15,ESE,103,1.0,1.0,50,0.00,,,0.00,Wunderground v.1.15,2013-05-27 00:05:00,
2013-05-26 20:15:00,77.0,56.9,30.15,East,94,1.0,1.0,50,0.00,,,0.00,Wunderground v.1.15,2013-05-27 00:15:00,
2013-05-26 20:20:00,76.6,56.6,30.15,North,360,1.0,1.0,50,0.00,,,0.00,Wunderground v.1.15,2013-05-27 00:20:00,
2013-05-26 20:30:00,75.8,56.4,30.15,NNE,31,1.0,1.0,51,0.00,,,0.00,Wunderground v.1.15,2013-05-27 00:30:00,
2013-05-26 20:35:00,75.4,56.0,30.15,NE,54,1.0,1.0,51,0.00,,,0.00,Wunderground v.1.15,2013-05-27 00:35:00,
2013-05-26 20:40:00,75.1,55.7,30.15,NNE,15,0.0,0.0,51,0.00,,,0.00,Wunderground v.1.15,2013-05-27 00:40:00,
2013-05-26 20:50:00,74.4,56.2,30.16,NNE,32,0.0,0.0,53,0.00,,,0.00,Wunderground v.1.15,2013-05-27 00:50:00,
2013-05-26 20:55:00,74.1,55.9,30.16,NE,36,0.0,0.0,53,0.00,,,0.00,Wunderground v.1.15,2013-05-27 00:55:00,
2013-05-26 21:05:00,73.5,56.3,30.16,East,89,0.0,0.0,55,0.00,,,0.00,Wunderground v.1.15,2013-05-27 01:05:00,
2013-05-26 21:15:00,73.3,57.1,30.16,NE,50,1.0,1.0,57,0.00,,,0.00,Wunderground v.1.15,2013-05-27 01:15:00,
2013-05-26 21:20:00,73.1,57.4,30.16,East,90,1.0,1.0,58,0.00,,,0.00,Wunderground v.1.15,2013-05-27 01:20:00,
2013-05-26 21:30:00,72.9,58.2,30.16,SSE,167,1.0,2.0,60,0.00,,,0.00,Wunderground v.1.15,2013-05-27 01:30:00,
2013-05-26 21:35:00,72.7,58.9,30.16,SSE,152,1.0,2.0,62,0.00,,,0.00,Wunderground v.1.15,2013-05-27 01:35:00,
2013-05-26 21:40:00,72.5,58.7,30.16,NNE,16,1.0,1.0,62,0.00,,,0.00,Wunderground v.1.15,2013-05-27 01:40:00,
2013-05-26 21:50:00,72.2,59.3,30.16,SE,130,0.0,3.0,64,0.00,,,0.00,Wunderground v.1.15,2013-05-27 01:50:00,
2013-05-26 21:55:00,72.0,60.0,30.17,ESE,107,0.0,3.0,66,0.00,,,0.00,Wunderground v.1.15,2013-05-27 01:55:00,
2013-05-26 22:05:00,71.6,60.1,30.17,ENE,74,0.0,1.0,67,0.00,,,0.00,Wunderground v.1.15,2013-05-27 02:05:00,
2013-05-26 22:15:00,71.2,60.5,30.17,ENE,61,1.0,1.0,69,0.00,,,0.00,Wunderground v.1.15,2013-05-27 02:15:00,
2013-05-26 22:20:00,71.1,60.4,30.17,NNW,328,0.0,0.0,69,0.00,,,0.00,Wunderground v.1.15,2013-05-27 02:20:00,
2013-05-26 22:30:00,70.8,60.5,30.17,SE,136,0.0,0.0,70,0.00,,,0.00,Wunderground v.1.15,2013-05-27 02:30:00,
2013-05-26 22:35:00,70.6,60.7,30.17,SE,128,0.0,0.0,71,0.00,,,0.00,Wunderground v.1.15,2013-05-27 02:35:00,
2013-05-26 22:45:00,70.3,60.4,30.18,SE,142,1.0,1.0,71,0.00,,,0.00,Wunderground v.1.15,2013-05-27 02:45:00,
2013-05-26 22:50:00,70.2,60.7,30.18,ENE,69,0.0,1.0,72,0.00,,,0.00,Wunderground v.1.15,2013-05-27 02:50:00,
2013-05-26 23:00:00,69.9,60.5,30.18,SE,146,0.0,0.0,72,0.00,,,0.00,Wunderground v.1.15,2013-05-27 03:00:00,
2013-05-26 23:05:00,69.8,60.4,30.19,SE,127,0.0,0.0,72,0.00,,,0.00,Wunderground v.1.15,2013-05-27 03:05:00,